Weather in Zayevo

Russia / Tver Oblast     57°00′09″N   32°45′08″E
temp.,
°C
wind,
m/s
gust,
m/s
humid.,
%
clouds,
%
prec.,
mm/h
press.,
hPa
HPBL,
m
14 april, wed
wed1400:00+11se119299 0.2 101716
03:00+9ssw2297100 0.5 101747
06:00+9s249984 0.1 1016138
09:00+11ssw259267 0.5 1016367
12:00+13sw357498 0.6 1016943
15:00+10nnw448882 1.4 1018397
18:00+8nnw358871 0.0 1019378
21:00+6n369399 0.0 1020380
15 april, thu
thu1500:00+5n379488 0.0 1021361
03:00+5nne399496 0.0 1021434
06:00+4nne41090100 0.0 1021441
09:00+5ne41085100 0.0 1022501
12:00+5ne41291100 1.3 1023581
15:00+5ne51391100 3.1 1023750
18:00+5ne51391100 0.4 1023808
21:00+5ene61389100 0.5 1024735
16 april, fri
fri1600:00+4ene51389100 0.1 1024691
03:00+4ene51384100 0.1 1024602
06:00+3ene51385100 0.0 1024567
09:00+5ene5127978 0.0 1024626
12:00+8ene6972100 0.0 1025821
15:00+6ene51280100 0.1 1025796
18:00+8ene51271100 0.0 1025933
21:00+6ene51370100 0.0 1026686
17 april, sat
sat1700:00+5ene51471100 0.0 1027570
03:00+4ene41372100 0.0 1028481
06:00+3ene51474100 0.0 1029441
09:00+6e51360100 0.0 1030593
12:00+10e694399 0.0 1030977
15:00+12e683582 0.0 10301366
18:00+11e584476 0.0 10301268
21:00+6ene3126122 0.0 1031387
18 april, sun
sun1800:00+4ene312735 0.0 1032348
03:00+3ene311805 0.0 1032284
06:00+2ene310853 0.0 1032209
09:00+7e48595 0.0 1032512
12:00+11e57435 0.0 10311544
15:00+13e45395 0.0 10301817
18:00+12e35455 0.0 10291819
21:00+7e25687 0.0 103087